Arusha, Tanzania

7:11 AM EAT on December 12, 2019 (GMT +0300)
Arusha

Weather History for HTAR - October, 2019

Change the Weather History Date:

Sunday, October 20, 2019

  Actual Average (WUND) Record (WUND)
Temperature  
Mean Temperature 68 °F -  
Max Temperature 77 °F - - (-1)
Min Temperature 60 °F - - (-1)
Cooling Degree Days 4    
Growing Degree Days 18 (Base 50)    
Moisture  
Dew Point 61 °F    
Average Humidity 78    
Maximum Humidity 100    
Minimum Humidity 57    
Precipitation  
Precipitation 0.00 in 0.11 in - ()
Sea Level Pressure  
Sea Level Pressure 30.04 in    
Wind  
Wind Speed 9 mph ()    
Max Wind Speed 21 mph    
Max Gust Speed -    
Visibility 6.1 miles    
Events Rain    
Averages and records for this station are not official NWS values.
T = Trace of Precipitation, MM = Missing Value Source: Averaged Metar Reports

Daily Weather History Graph

Daily Weather History Graph

Search for Another Location

Airport or City:

Astronomy

Oct. 20, 2019 Rise Set
Actual Time 6:12 AM EAT 6:24 PM EAT
Civil Twilight 5:51 AM EAT 6:45 PM EAT
Nautical Twilight 5:27 AM EAT 7:09 PM EAT
Astronomical Twilight 5:02 AM EAT 7:34 PM EAT
Moon No Moon Rise 11:25 AM EAT (10/20)
Length of Visible Light 12h 53m
Length of Day
12h 11m
Waning Gibbous, 62% of the Moon is Illuminated
Oct 20
Waning Gibbous
Oct 21
Last Quarter
Oct 28
New
Nov 4
First Quarter
Nov 12
Full

Hourly Weather History & Observations

Time (EAT) Temp. Dew Point Humidity Pressure Visibility Wind Dir Wind Speed Gust Speed Precip Events Conditions
12:00 AM 64.4 °F 62.6 °F 94% 30.06 in 6.2 mi East 5.8 mph - N/A   Scattered Clouds
1:00 AM 64.4 °F 62.6 °F 94% 30.04 in 6.2 mi East 10.4 mph - N/A   Mostly Cloudy
2:00 AM 64.4 °F 62.6 °F 94% 30.04 in 6.2 mi ESE 10.4 mph - N/A   Mostly Cloudy
3:00 AM 62.6 °F 62.6 °F 100% 30.04 in 6.2 mi SE 9.2 mph - N/A Rain Rain
4:00 AM 62.6 °F 62.6 °F 100% 30.04 in 5.0 mi East 9.2 mph - N/A Rain Rain
5:00 AM 60.8 °F 60.8 °F 100% 30.06 in 6.2 mi East 5.8 mph - N/A   Mostly Cloudy
6:00 AM 62.6 °F 60.8 °F 94% 30.06 in 6.2 mi East 11.5 mph - N/A   Mostly Cloudy
8:00 AM 66.2 °F 60.8 °F 83% 30.12 in 6.2 mi East 8.1 mph - N/A   Scattered Clouds
9:00 AM 66.2 °F 60.8 °F 83% 30.12 in 6.2 mi ESE 11.5 mph - N/A   Mostly Cloudy
10:00 AM 66.2 °F 60.8 °F 83% - 6.2 mi SE 5.8 mph - N/A   Mostly Cloudy
11:00 AM 69.8 °F 60.8 °F 73% 30.09 in 6.2 mi SE 11.5 mph - N/A   Mostly Cloudy
12:00 PM 71.6 °F 62.6 °F 73% 30.09 in 6.2 mi East 9.2 mph - N/A   Mostly Cloudy
1:00 PM 73.4 °F 60.8 °F 65% 30.04 in 6.2 mi SE 11.5 mph - N/A   Mostly Cloudy
2:00 PM 75.2 °F 60.8 °F 61% 30.01 in 6.2 mi East 11.5 mph - N/A   Partly Cloudy
3:00 PM 77.0 °F 62.6 °F 61% 30.01 in 6.2 mi East 9.2 mph - N/A   Partly Cloudy
4:00 PM 77.0 °F 60.8 °F 57% 29.98 in 6.2 mi SE 6.9 mph - N/A   Partly Cloudy
5:00 PM 77.0 °F 60.8 °F 57% 29.98 in 6.2 mi East 9.2 mph - N/A   Partly Cloudy
6:00 PM 75.2 °F 62.6 °F 65% 29.98 in 6.2 mi ESE 16.1 mph - N/A   Partly Cloudy
7:00 PM 71.6 °F 60.8 °F 69% 29.98 in 6.2 mi East 11.5 mph - N/A   Partly Cloudy
8:00 PM 69.8 °F 57.2 °F 64% 30.01 in 6.2 mi East 9.2 mph - N/A   Partly Cloudy
9:00 PM 68.0 °F 60.8 °F 78% 30.04 in 6.2 mi East 13.8 mph - N/A   Partly Cloudy
10:00 PM 68.0 °F 59.0 °F 73% 30.06 in 6.2 mi East 20.7 mph - N/A   Partly Cloudy
11:00 PM 66.2 °F 60.8 °F 83% 30.06 in 6.2 mi ESE 13.8 mph - N/A   Scattered Clouds